Погода в Сокале

Украина / Львовская область     50°28′47″N   24°17′05″E
темп.,
°C
ветер,
м/с
пор.,
м/с
влажн.,
%
обл.,
%
осадки,
мм/ч
давл.,
гПа
погр.,
м
22 мая, вс
вс2200:00+12зсз614715 0.0 1012788
03:00+11з714795 0.0 1010694
06:00+10зсз7148479 0.0 1010823
09:00+10зсз71283100 0.3 10101364
12:00+12зсз8117296 0.3 10101440
15:00+12сз8127191 0.6 10111246
18:00+12сз61173100 0.0 10101228
21:00+10ссз387964 0.1 1011516
23 мая, пн
пн2300:00+8зсз378888 0.0 1011194
03:00+9сз4989100 0.2 1011523
06:00+8зсз3693100 0.1 1012390
09:00+9сз3592100 0.1 1013447
12:00+11сз338299 0.1 1013553
15:00+15сз336893 0.7 10131043
18:00+16с126282 0.6 1012964
21:00+12зсз227928 1.2 101315
24 мая, вт
вт2400:00+8всв33871 0.0 101437
03:00+7юв34930 0.0 101454
06:00+7вюв34943 0.0 101475
09:00+12юв46705 0.0 1014373
12:00+17юв5656100 0.0 10131114
15:00+19юв5651100 0.0 10121722
18:00+19ююв3661100 0.0 10121350
21:00+14вюв337797 0.0 101333
25 мая, ср
ср2500:00+12вюв478497 0.0 1014101
03:00+11юв488371 0.0 1014142
06:00+10юв3785100 0.0 1014125
09:00+15ююв4672100 0.0 1014331
12:00+19ююв3464100 0.0 1014698
15:00+22ююз235599 0.0 10131291
18:00+20ю2268100 0.1 101218
21:00+18зюз368562 0.6 101194
26 мая, чт
чт2600:00+14зсз71294100 1.9 1014611
03:00+11зсз6129566 1.9 1016527
06:00+10сз489277 0.0 1017415
09:00+14з59800 0.0 1017599
12:00+19зсз79536 0.1 10171874
15:00+18з61060100 0.1 1017802
18:00+18зсз5106568 0.3 10171086
21:00+14зсз37800 0.4 1017122